Voltar ao catálogo

DMSP 5D-2 F13 DEB

AtivoPO
NORAD 42299·DEBRIS·🇺🇸 United States

Lançado Mar 24, 1995 de Vandenberg Space Force Base

Loading…

Próximas Passagens (próximas 24 horas)

TLE

AtualizadoSource: Space-Track

Época: Sep 13, 2026, 05:04 UTC

1 42299U 95015HR  26256.21159233  .00051818  00000-0  35835-2 0  9992
2 42299  98.6963 352.0524 0006779 321.2580  38.8157 15.05486390574324

Acompanhe DMSP 5D-2 F13 DEB em tempo real com AllMySat

Download on the App Store